Regional Weather Roundup
Issued by NWS Cleveland, OH

Home | Current Version | Previous Version | Text Only | Print | Product List | Glossary Off
Versions: 1 2 3 4 5 6 7 8 9 10 11 12 13 14 15 16 17 18 19 20 21 22 23 24 25 26 27 28 29 30 31 32 33 34 35 36 37 38 39 40 41 42 43 44 45 46 47 48 49 50

000
ASUS41 KCLE 291500
RWRCLE
OHIO REGIONAL WEATHER ROUNDUP
NATIONAL WEATHER SERVICE WILMINGTON, OH
1100 AM EDT WED JUL 29 2015

NOTE: "FAIR" INDICATES FEW OR NO CLOUDS BELOW 12,000 FEET WITH NO
SIGNIFICANT WEATHER AND/OR OBSTRUCTIONS TO VISIBILITY.

OHZ001>008-015>018-024>027-034-035-043-044-291600-
   NORTHWEST OHIO

CITY           SKY/WX    TMP DP  RH WIND       PRES   REMARKS
DEFIANCE       MOSUNNY   86  73  65 S9        29.95F HX  93
FINDLAY        SUNNY     86  73  65 SW7       29.97F HX  93
TOLEDO EXPRESS MOSUNNY   85  72  65 S6        29.95F HX  91
TOLEDO EXEC    SUNNY     86  71  60 SW8       29.96F HX  91
LIMA           MOSUNNY   83  73  72 SW7       29.99F
$$

OHZ009>014-019>023-028>033-038-089-291600-
   NORTHEAST OHIO

CITY           SKY/WX    TMP DP  RH WIND       PRES   REMARKS
CLE-HOPKINS    MOSUNNY   86  65  49 SW6       30.01S
CLE-LAKEFRONT  PTSUNNY   85  69  58 W6        29.97S
CUY CO. ARPT   MOSUNNY   88  64  45 W9        30.00S
LORAIN-ELYRIA  SUNNY     84  67  56 SW5       30.00S
ASHTABULA      MOSUNNY   82  70  66 S7        30.01S
AKRON-CANTON   SUNNY     85  68  56 CALM      30.02S
WOOSTER        NOT AVBL
MANSFIELD      SUNNY     85  67  54 MISG      30.03R
YOUNGSTOWN     PTSUNNY   82  70  66 S5        30.02S
$$

OHZ042-051>053-060>062-070>072-077>081-291600-
  SOUTHWEST OHIO

CITY           SKY/WX    TMP DP  RH WIND       PRES   REMARKS
CINC-COVINGTON PTSUNNY   86  75  69 CALM      30.00S HX  95
CINC-LUNKEN    MOSUNNY   84  76  76 CALM      29.99S HX  93
HAMILTON       MOSUNNY   87  75  67 CALM      30.00S HX  96
DAYTON         NOT AVBL
WRIGHT-PAT AFB SUNNY     85  75  72 SW6       29.99F HX  94
DAYTON GENERAL MOSUNNY   85  72  65 VRB3      30.00S HX  91
WILMINGTON     MOSUNNY   85  73  67 CALM      30.01S HX  91
$$

OHZ036-037-039>041-045>050-054>059-063>069-073>076-082>088-291600-
  CENTRAL AND SOUTHEAST OHIO

CITY           SKY/WX    TMP DP  RH WIND       PRES   REMARKS
COLUMBUS       MOSUNNY   84  68  58 CALM      30.00S
OSU AIRPORT    SUNNY     86  71  60 VRB3      30.00F HX  91
BOLTON FIELD   SUNNY     82  73  74 CALM      30.01S
RICKENBACK AFB NOT AVBL
NEWARK         SUNNY     86  67  52 CALM      30.00F
MARION         MOSUNNY   85  70  60 VRB5      30.01S HAZE
LANCASTER      SUNNY     85  70  60 CALM      30.01S
ZANESVILLE     SUNNY     84  69  60 CALM      30.01S HAZE
NEW PHILLY     SUNNY     82  72  71 CALM      30.01F HAZE
$$



USA.gov is the U.S. government's official web portal to all federal, state and local government web resources and services.